DW9945 Weather Reports


Display with metric or nautical units.
time (UTC)temp
F
wind
direction
speed
MPH
gust
MPH
rain 1hr
in
rain 24hr
in
rain mn
in
humidity
%
barometer
mb
20260901230019 73 116 2.0 3.0 0.00 0.00 0.00 30 1017.7
20260901225518 73 84 2.0 3.0 0.00 0.00 0.00 31 1017.6
20260901225019 73 37 1.0 3.0 0.00 0.00 0.00 30 1017.3
20260901224520 73 37 0.0 0.0 0.00 0.00 0.00 30 1017.2
20260901224018 73 37 0.0 0.0 0.00 0.00 0.00 30 1017.1
20260901223522 73 37 0.0 1.0 0.00 0.00 0.00 30 1017.1
20260901223019 74 37 1.0 2.0 0.00 0.00 0.00 30 1017.0
20260901222518 74 37 2.0 3.0 0.00 0.00 0.00 29 1017.1
20260901222018 75 66 0.0 0.0 0.00 0.00 0.00 29 1017.0
20260901221519 75 66 1.0 2.0 0.00 0.00 0.00 28 1017.1
20260901221018 75 66 1.0 3.0 0.00 0.00 0.00 28 1017.0
20260901220019 75 101 2.0 5.0 0.00 0.00 0.00 29 1016.9
20260901215518 75 43 2.0 5.0 0.00 0.00 0.00 28 1016.9
20260901215018 76 306 0.0 2.0 0.00 0.00 0.00 27 1016.9
20260901214518 76 308 0.0 2.0 0.00 0.00 0.00 27 1016.8
20260901214018 77 311 2.0 6.0 0.00 0.00 0.00 26 1016.7
20260901213519 78 307 5.0 8.0 0.00 0.00 0.00 25 1016.8
20260901213007 79 313 6.0 8.0 0.00 0.00 0.00 25 1016.7
20260901212518 79 316 6.0 8.0 0.00 0.00 0.00 24 1016.6
20260901212018 79 316 6.0 8.0 0.00 0.00 0.00 25 1016.6
20260901211007 79 309 6.0 8.0 0.00 0.00 0.00 25 1016.6
20260901210518 79 307 5.0 7.0 0.00 0.00 0.00 24 1016.5
20260901210018 79 307 5.0 7.0 0.00 0.00 0.00 24 1016.5
20260901205518 79 310 5.0 8.0 0.00 0.00 0.00 24 1016.5
20260901205018 79 312 6.0 8.0 0.00 0.00 0.00 24 1016.4
20260901204518 78 310 5.0 8.0 0.00 0.00 0.00 25 1016.3
20260901204018 79 303 6.0 9.0 0.00 0.00 0.00 24 1016.3
20260901203518 79 310 7.0 9.0 0.00 0.00 0.00 24 1016.3
20260901203018 80 310 7.0 9.0 0.00 0.00 0.00 23 1016.0
20260901202518 81 309 7.0 9.0 0.00 0.00 0.00 23 1016.0
20260901202018 81 310 8.0 9.0 0.00 0.00 0.00 23 1015.9
20260901201518 81 314 8.0 10.0 0.00 0.00 0.00 23 1015.8
20260901201018 81 311 8.0 9.0 0.00 0.00 0.00 23 1015.6
20260901200519 81 311 8.0 10.0 0.00 0.00 0.00 23 1015.6
20260901200018 81 316 8.0 10.0 0.00 0.00 0.00 23 1015.6
20260901195017 82 315 7.0 8.0 0.00 0.00 0.00 22 1015.6
20260901194507 81 317 7.0 9.0 0.00 0.00 0.00 23 1015.4
20260901194007 81 312 8.0 9.0 0.00 0.00 0.00 23 1015.4
20260901193507 82 312 6.0 8.0 0.00 0.00 0.00 23 1015.3
20260901193018 82 313 6.0 8.0 0.00 0.00 0.00 23 1015.3
20260901192518 82 313 6.0 8.0 0.00 0.00 0.00 23 1015.1
20260901192018 82 310 7.0 9.0 0.00 0.00 0.00 23 1015.1
20260901191518 82 314 7.0 9.0 0.00 0.00 0.00 23 1015.0
20260901191018 82 311 6.0 9.0 0.00 0.00 0.00 23 1015.0
20260901190518 83 305 6.0 8.0 0.00 0.00 0.00 22 1015.0
20260901190018 84 300 6.0 10.0 0.00 0.00 0.00 22 1014.9
20260901185017 85 299 3.0 5.0 0.00 0.00 0.00 22 1014.8
20260901184018 87 299 4.0 9.0 0.00 0.00 0.00 21 1014.8
20260901183518 87 289 6.0 8.0 0.00 0.00 0.00 21 1014.8
20260901183018 88 300 5.0 9.0 0.00 0.00 0.00 21 1014.8
20260901182506 88 300 6.0 9.0 0.00 0.00 0.00 21 1014.8
20260901182007 88 288 6.0 10.0 0.00 0.00 0.00 21 1014.7
20260901181523 88 288 7.0 10.0 0.00 0.00 0.00 21 1014.7
20260901180514 89 261 6.0 12.0 0.00 0.00 0.00 21 1014.5
20260901180017 89 287 6.0 12.0 0.00 0.00 0.00 21 1014.5
20260901175517 89 278 5.0 9.0 0.00 0.00 0.00 20 1014.6
20260901175018 90 282 5.0 12.0 0.00 0.00 0.00 20 1014.6
20260901174518 90 286 7.0 13.0 0.00 0.00 0.00 20 1014.6
20260901173518 91 281 6.0 10.0 0.00 0.00 0.00 20 1014.6
20260901173007 91 275 3.0 12.0 0.00 0.00 0.00 20 1014.6
20260901172007 91 265 3.0 8.0 0.00 0.00 0.00 20 1014.5
20260901171507 90 238 5.0 12.0 0.00 0.00 0.00 20 1014.6
20260901170506 90 235 5.0 12.0 0.00 0.00 0.00 20 1014.6
20260901170018 91 273 3.0 7.0 0.00 0.00 0.00 20 1014.6
20260901165518 90 232 3.0 12.0 0.00 0.00 0.00 20 1014.6
20260901164518 91 227 6.0 14.0 0.00 0.00 0.00 20 1014.7
20260901164018 91 269 5.0 9.0 0.00 0.00 0.00 20 1014.5
20260901163518 91 210 7.0 12.0 0.00 0.00 0.00 21 1014.6
20260901163007 91 258 7.0 13.0 0.00 0.00 0.00 21 1014.6
20260901162518 91 253 5.0 12.0 0.00 0.00 0.00 20 1014.6
20260901162018 91 253 7.0 13.0 0.00 0.00 0.00 20 1014.6
20260901161517 91 243 6.0 12.0 0.00 0.00 0.00 20 1014.5
20260901161017 91 218 6.0 13.0 0.00 0.00 0.00 21 1014.5
20260901160507 91 232 8.0 14.0 0.00 0.00 0.00 20 1014.7
20260901160018 91 253 5.0 13.0 0.00 0.00 0.00 22 1014.6
20260901155517 91 285 9.0 16.0 0.00 0.00 0.00 21 1014.6
20260901155017 92 263 5.0 12.0 0.00 0.00 0.00 21 1014.7
20260901154517 91 257 5.0 13.0 0.00 0.00 0.00 21 1014.7
20260901154007 91 221 6.0 14.0 0.00 0.00 0.00 21 1014.7
20260901153518 91 240 9.0 14.0 0.00 0.00 0.00 21 1014.7
20260901153018 91 227 7.0 12.0 0.00 0.00 0.00 21 1014.8
20260901152518 90 219 6.0 10.0 0.00 0.00 0.00 23 1014.8
20260901151518 91 208 2.0 12.0 0.00 0.00 0.00 24 1014.8
20260901151017 91 210 4.0 9.0 0.00 0.00 0.00 23 1014.7
20260901150518 90 242 3.0 12.0 0.00 0.00 0.00 24 1014.7
20260901150007 90 188 9.0 17.0 0.00 0.00 0.00 24 1014.7
20260901145507 90 212 6.0 13.0 0.00 0.00 0.00 24 1014.6
20260901145007 90 260 6.0 13.0 0.00 0.00 0.00 24 1014.6
20260901144507 90 224 10.0 15.0 0.00 0.00 0.00 24 1014.6
20260901142518 89 191 10.0 14.0 0.00 0.00 0.00 25 1014.8
20260901142018 90 188 5.0 12.0 0.00 0.00 0.00 25 1014.9
20260901141017 90 260 7.0 14.0 0.00 0.00 0.00 24 1015.1
20260901140506 89 214 3.0 13.0 0.00 0.00 0.00 25 1015.1
20260901140018 89 210 7.0 21.0 0.00 0.00 0.00 27 1015.3
20260901135517 89 184 4.0 8.0 0.00 0.00 0.00 28 1015.1
20260901135017 88 234 5.0 9.0 0.00 0.00 0.00 28 1015.2
20260901134506 89 234 5.0 10.0 0.00 0.00 0.00 28 1015.2
20260901134017 89 239 5.0 12.0 0.00 0.00 0.00 29 1015.4
20260901133518 88 240 2.0 7.0 0.00 0.00 0.00 30 1015.3
20260901133018 87 235 3.0 13.0 0.00 0.00 0.00 30 1015.4
20260901132517 88 280 10.0 14.0 0.00 0.00 0.00 30 1015.4
20260901132017 88 256 5.0 12.0 0.00 0.00 0.00 30 1015.4
20260901131517 88 203 7.0 15.0 0.00 0.00 0.00 29 1015.5
20260901131017 87 161 4.0 7.0 0.00 0.00 0.00 30 1015.5
20260901130517 87 153 6.0 12.0 0.00 0.00 0.00 32 1015.7
20260901130017 87 196 7.0 12.0 0.00 0.00 0.00 31 1015.8
20260901125517 87 229 6.0 12.0 0.00 0.00 0.00 31 1015.9
20260901125017 87 232 7.0 13.0 0.00 0.00 0.00 29 1016.0
20260901124517 87 319 2.0 5.0 0.00 0.00 0.00 32 1015.9
20260901124017 87 238 3.0 10.0 0.00 0.00 0.00 31 1015.9
20260901123517 87 227 7.0 12.0 0.00 0.00 0.00 32 1016.0
20260901123007 86 234 3.0 10.0 0.00 0.00 0.00 34 1016.0
20260901122507 86 270 3.0 7.0 0.00 0.00 0.00 35 1015.9
20260901122017 86 247 2.0 6.0 0.00 0.00 0.00 35 1016.0
20260901121518 85 189 5.0 10.0 0.00 0.00 0.00 35 1016.2
20260901121018 85 174 4.0 10.0 0.00 0.00 0.00 35 1016.1
20260901120017 84 198 4.0 10.0 0.00 0.00 0.00 36 1016.1
20260901115506 84 282 1.0 6.0 0.00 0.00 0.00 38 1016.3
20260901115017 84 188 3.0 12.0 0.00 0.00 0.00 38 1016.3
20260901114517 84 126 2.0 6.0 0.00 0.00 0.00 40 1016.3
20260901114017 84 289 4.0 12.0 0.00 0.00 0.00 39 1016.3
20260901113517 83 237 1.0 3.0 0.00 0.00 0.00 42 1016.5
20260901113017 83 167 1.0 7.0 0.00 0.00 0.00 42 1016.5
20260901112517 83 214 3.0 9.0 0.00 0.00 0.00 43 1016.6
20260901112006 83 142 1.0 7.0 0.00 0.00 0.00 42 1016.5
20260901111517 82 136 3.0 6.0 0.00 0.00 0.00 42 1016.7
20260901110506 81 130 3.0 9.0 0.00 0.00 0.00 45 1016.8
20260901105017 81 162 3.0 9.0 0.00 0.00 0.00 47 1016.9
20260901104517 81 122 5.0 9.0 0.00 0.00 0.00 46 1016.9
20260901103518 80 130 3.0 8.0 0.00 0.00 0.00 49 1017.1
20260901103006 80 119 5.0 9.0 0.00 0.00 0.00 49 1017.1
20260901102517 79 208 1.0 5.0 0.00 0.00 0.00 50 1017.1
20260901101517 79 86 5.0 10.0 0.00 0.00 0.00 50 1017.1
20260901101006 79 77 1.0 3.0 0.00 0.00 0.00 51 1017.1
20260901100518 78 181 3.0 7.0 0.00 0.00 0.00 51 1017.2
20260901100019 78 110 4.0 9.0 0.00 0.00 0.00 51 1017.3
20260901095519 78 85 0.0 3.0 0.00 0.00 0.00 52 1017.3
20260901095019 77 122 2.0 5.0 0.00 0.00 0.00 52 1017.4
20260901094519 77 174 3.0 6.0 0.00 0.00 0.00 52 1017.4
20260901094019 77 101 2.0 10.0 0.00 0.00 0.00 54 1017.3
20260901093508 77 94 1.0 9.0 0.00 0.00 0.00 55 1017.3
20260901093019 77 60 2.0 5.0 0.00 0.00 0.00 54 1017.3
20260901092519 76 164 1.0 8.0 0.00 0.00 0.00 56 1017.4
20260901092008 76 147 2.0 6.0 0.00 0.00 0.00 56 1017.4
20260901091519 76 144 2.0 3.0 0.00 0.00 0.00 56 1017.4
20260901091019 76 91 3.0 5.0 0.00 0.00 0.00 56 1017.5
20260901085519 75 102 2.0 6.0 0.00 0.00 0.00 57 1017.5
20260901085019 75 154 0.0 5.0 0.00 0.00 0.00 58 1017.5
20260901084519 74 83 2.0 3.0 0.00 0.00 0.00 58 1017.4
20260901084019 74 91 3.0 3.0 0.00 0.00 0.00 58 1017.4
20260901083519 74 97 3.0 7.0 0.00 0.00 0.00 58 1017.4
20260901083020 74 79 4.0 5.0 0.00 0.00 0.00 57 1017.3
20260901082519 75 61 1.0 5.0 0.00 0.00 0.00 58 1017.3
20260901082009 74 86 0.0 5.0 0.00 0.00 0.00 57 1017.3
20260901081519 73 97 0.0 3.0 0.00 0.00 0.00 57 1017.2
20260901081008 73 80 2.0 3.0 0.00 0.00 0.00 56 1017.2
20260901074519 72 84 2.0 3.0 0.00 0.00 0.00 56 1017.3
20260901074018 72 115 3.0 7.0 0.00 0.00 0.00 56 1017.3
20260901073519 72 94 4.0 7.0 0.00 0.00 0.00 55 1017.4
20260901073019 72 107 3.0 6.0 0.00 0.00 0.00 56 1017.4
20260901072019 71 108 5.0 7.0 0.00 0.00 0.00 56 1017.3
20260901071519 71 111 2.0 3.0 0.00 0.00 0.00 57 1017.3
20260901071007 71 106 2.0 3.0 0.00 0.00 0.00 58 1017.3
20260901070519 70 27 0.0 0.0 0.00 0.00 0.00 59 1017.3
20260901070019 69 27 0.0 0.0 0.00 0.00 0.00 58 1017.3
20260901065518 68 27 0.0 2.0 0.00 0.00 0.00 58 1017.3
20260901065018 68 27 1.0 3.0 0.00 0.00 0.00 59 1017.3
20260901064519 67 27 2.0 3.0 0.00 0.00 0.00 59 1017.2
20260901064018 66 27 2.0 3.0 0.00 0.00 0.00 59 1017.1
20260901063519 66 27 2.0 3.0 0.00 0.00 0.00 59 1017.1
20260901062508 66 27 0.0 2.0 0.00 0.00 0.00 59 1016.8
20260901062019 66 25 1.0 3.0 0.00 0.00 0.00 59 1016.9
20260901061508 65 13 2.0 3.0 0.00 0.00 0.00 59 1016.9
20260901061007 65 13 2.0 5.0 0.00 0.00 0.00 59 1016.9
20260901060508 65 5 3.0 5.0 0.00 0.00 0.00 59 1017.0
20260901055519 66 27 2.0 3.0 0.00 0.00 0.00 59 1016.8
20260901055019 66 355 2.0 3.0 0.00 0.00 0.00 59 1016.8
20260901054519 65 355 2.0 3.0 0.00 0.00 0.00 59 1016.7
20260901054019 65 355 2.0 3.0 0.00 0.00 0.00 59 1016.5
20260901053518 65 355 2.0 3.0 0.00 0.00 0.00 59 1016.5
20260901053019 65 355 2.0 3.0 0.00 0.00 0.00 59 1016.5
20260901052519 66 13 3.0 3.0 0.00 0.00 0.00 59 1016.4
20260901052018 66 16 2.0 3.0 0.00 0.00 0.00 59 1016.5
20260901051519 66 16 0.0 0.0 0.00 0.00 0.00 60 1016.5
20260901050508 66 16 2.0 3.0 0.00 0.00 0.00 60 1016.4
20260901045019 65 19 2.0 3.0 0.00 0.00 0.00 60 1016.4
20260901044508 65 19 1.0 3.0 0.00 0.00 0.00 60 1016.3
20260901043508 66 19 1.0 3.0 0.00 0.00 0.00 60 1016.3
20260901043018 66 19 3.0 3.0 0.00 0.00 0.00 61 1016.3
20260901042519 65 19 2.0 3.0 0.00 0.00 0.00 61 1016.1
20260901041508 65 25 2.0 3.0 0.00 0.00 0.00 60 1016.0
20260901041018 65 28 2.0 3.0 0.00 0.00 0.00 60 1016.0
20260901040019 65 19 3.0 5.0 0.00 0.00 0.00 61 1016.0
20260901035518 66 26 1.0 3.0 0.00 0.00 0.00 60 1016.0
20260901034519 67 31 0.0 0.0 0.00 0.00 0.00 61 1015.9
20260901033519 67 31 0.0 0.0 0.00 0.00 0.00 57 1015.9
20260901033008 67 43 0.0 0.0 0.00 0.00 0.00 57 1015.9
20260901031519 68 43 0.0 0.0 0.00 0.00 0.00 56 1015.9
20260901031018 68 34 0.0 0.0 0.00 0.00 0.00 55 1015.9
20260901025518 68 34 0.0 0.0 0.00 0.00 0.00 53 1015.9
20260901025018 68 34 0.0 3.0 0.00 0.00 0.00 53 1015.8
20260901024518 68 29 2.0 3.0 0.00 0.00 0.00 53 1015.9
20260901023508 68 19 3.0 3.0 0.00 0.00 0.00 52 1015.7
20260901023019 68 19 2.0 3.0 0.00 0.00 0.00 51 1015.8
20260901022508 68 31 3.0 3.0 0.00 0.00 0.00 52 1015.8
20260901022018 68 5 2.0 3.0 0.00 0.00 0.00 51 1015.8
20260901021508 68 19 0.0 3.0 0.00 0.00 0.00 49 1015.9
20260901020508 68 19 3.0 3.0 0.00 0.00 0.00 48 1015.9
20260901020018 69 40 0.0 0.0 0.00 0.00 0.00 47 1015.9
20260901015019 69 40 0.0 0.0 0.00 0.00 0.00 46 1015.8
20260901014518 70 40 0.0 0.0 0.00 0.00 0.00 45 1015.9
20260901014019 70 40 0.0 2.0 0.00 0.00 0.00 44 1015.9
20260901013519 70 40 1.0 3.0 0.00 0.00 0.00 44 1015.9
20260901013019 70 40 2.0 3.0 0.00 0.00 0.00 44 1015.9
20260901012519 71 41 2.0 3.0 0.00 0.00 0.00 44 1015.9
20260901012019 71 46 2.0 3.0 0.00 0.00 0.00 43 1016.0
20260901011018 71 52 2.0 3.0 0.00 0.00 0.00 43 1015.9
20260901010519 71 30 2.0 5.0 0.00 0.00 0.00 43 1015.8
20260901005518 71 40 2.0 6.0 0.00 0.00 0.00 43 1015.8
20260901005019 70 44 2.0 3.0 0.00 0.00 0.00 43 1015.9
20260901004018 70 20 2.0 5.0 0.00 0.00 0.00 43 1016.0
20260901003018 70 32 3.0 7.0 0.00 0.00 0.00 42 1016.0
20260901002518 70 15 3.0 5.0 0.00 0.00 0.00 42 1016.0
20260901002018 70 11 3.0 3.0 0.00 0.00 0.00 41 1016.1
20260901001512 70 6 3.0 5.0 0.00 0.00 0.00 40 1016.1
20260901000507 69 49 2.0 5.0 0.00 0.00 0.00 40 1016.3
20260901000007 69 70 1.0 5.0 0.00 0.00 0.00 40 1016.2
20260831235509 68 26 2.0 5.0 0.00 0.00 0.00 40 1016.0
20260831235019 68 18 3.0 6.0 0.00 0.00 0.00 41 1016.0
20260831234518 68 354 5.0 8.0 0.00 0.00 0.00 40 1015.9
20260831234019 68 354 5.0 6.0 0.00 0.00 0.00 40 1015.9
20260831233519 69 0 3.0 6.0 0.00 0.00 0.00 39 1016.0
20260831232518 70 32 3.0 9.0 0.00 0.00 0.00 39 1015.9
20260831232018 71 91 7.0 10.0 0.00 0.00 0.00 37 1015.9
20260831231519 72 124 4.0 10.0 0.00 0.00 0.00 37 1015.8
20260831231018 71 21 3.0 3.0 0.00 0.00 0.00 37 1015.6
20260831230518 71 355 3.0 3.0 0.00 0.00 0.00 37 1015.6